Theta_e
334 334 333 332 331 331 330 328 328 327 326 325 324 323 322 321 321 322 322 322 323 323 322 321 320 320 318 318 318 317 316 314 313 313 311 311 310 310 310 309 309 308
334 333 331 330 330 330 329 328 328 327 325 324 324 323 321 321 321 322 321 321 321 322 321 319 319 319 318 318 317 316 315 313 312 312 311 310 310 309 309 308 307 306
331 331 330 329 328 328 328 327 326 325 325 324 322 321 321 321 322 322 320 320 321 321 319 317 317 318 318 317 317 315 314 312 311 311 311 310 309 308 307 307 306 305
329 329 329 328 327 327 326 325 325 324 324 323 321 321 322 322 322 322 320 319 320 319 317 316 317 318 318 317 316 315 313 311 310 310 310 309 308 307 306 306 305 304
329 328 327 326 326 325 325 324 324 324 323 321 321 322 322 322 322 321 319 318 319 318 317 316 317 318 317 317 316 314 312 310 308 308 308 308 307 306 306 305 304 304
327 327 326 326 325 324 324 324 323 323 322 321 322 322 322 322 322 320 317 318 318 317 318 317 317 317 317 316 315 313 311 310 307 306 307 307 307 306 306 305 304 303
326 326 325 325 324 323 323 322 322 322 322 322 322 322 322 322 321 318 317 317 317 317 318 318 317 317 316 315 314 312 311 310 307 305 305 307 307 306 306 305 304 303
325 325 324 324 323 323 322 321 321 322 322 322 322 322 322 321 319 317 317 317 317 316 316 316 317 316 315 314 313 312 310 309 308 306 304 305 306 306 306 305 304 304
324 324 323 323 322 321 321 321 321 321 321 321 321 320 319 319 318 317 317 317 316 316 315 315 315 315 314 313 312 312 311 309 308 306 304 304 306 306 306 305 304 304
323 323 323 322 321 320 320 321 321 320 320 319 319 318 318 318 317 317 317 317 316 315 315 314 314 314 313 312 312 311 310 309 307 306 305 305 305 306 306 305 305 304
323 322 322 321 320 320 320 320 320 319 318 318 318 318 317 317 317 316 317 316 315 314 314 313 313 313 311 310 309 308 308 308 307 306 305 305 305 305 305 305 305 305
322 321 321 320 319 319 320 320 319 318 317 317 317 317 317 316 316 316 316 315 314 313 313 312 312 312 310 308 307 306 306 306 306 306 306 306 305 304 304 305 306 305
321 320 320 319 319 319 320 319 318 317 317 316 317 317 316 316 315 315 314 314 313 312 312 311 311 310 309 307 306 305 305 304 305 306 306 306 305 304 304 305 306 306
320 320 319 318 318 319 320 319 317 316 316 316 316 315 315 314 314 313 313 313 312 311 310 310 309 309 308 307 306 305 304 303 303 304 304 305 305 304 304 305 306 306
319 319 318 318 319 319 319 317 316 315 315 315 315 314 313 312 312 311 311 311 311 310 309 309 308 308 307 307 306 305 304 303 302 302 302 303 303 303 304 305 305 306
318 318 318 319 319 319 318 316 315 314 314 313 313 312 311 310 310 310 310 309 309 308 307 307 306 306 307 306 306 305 303 302 301 301 300 301 302 303 304 304 305 305
318 317 318 319 318 317 316 315 314 313 313 312 311 310 309 309 308 308 308 307 307 307 306 305 305 305 305 305 305 304 303 302 300 299 299 300 302 303 304 304 304 304
317 318 318 318 317 316 315 314 313 312 312 310 309 307 307 307 307 307 306 306 305 304 302 301 301 302 303 304 304 303 301 299 298 298 299 300 302 303 303 304 303 303
317 317 317 317 316 314 313 313 312 311 311 309 307 306 306 307 306 305 305 304 303 302 299 297 297 298 299 300 300 299 298 297 297 298 299 300 301 302 302 302 303 303
317 316 317 316 315 313 312 312 311 310 309 308 306 306 306 306 305 304 304 304 303 302 300 298 296 295 296 296 296 296 296 296 297 298 299 299 300 300 300 301 301 301
316 316 316 316 313 312 311 311 310 309 309 308 306 305 305 305 304 304 304 304 304 304 303 301 299 298 297 295 295 295 295 295 296 297 298 298 298 298 298 299 299 299
316 316 316 315 312 312 311 310 309 309 308 307 305 303 304 304 304 304 304 304 304 305 304 303 302 302 300 298 296 295 295 295 296 297 297 297 297 297 298 298 298 298
316 316 315 313 312 312 311 310 309 308 307 306 304 302 303 303 303 303 304 304 304 304 304 304 303 302 302 300 297 295 295 295 296 296 297 297 297 297 297 298 298 298
316 316 314 312 312 312 310 309 308 307 306 305 302 301 301 302 303 303 303 303 304 304 304 305 304 303 302 301 299 297 295 294 295 296 297 297 297 297 297 297 297 298
316 315 313 312 312 311 310 309 308 306 305 304 302 301 300 300 301 302 302 303 303 303 304 305 304 303 302 301 300 299 297 295 295 296 297 297 297 297 297 297 297 297
315 314 313 312 312 311 310 308 307 305 304 303 302 301 300 299 300 301 302 302 302 303 303 304 305 304 303 301 301 300 299 296 294 296 297 297 297 297 297 297 298 297
Wind_Speed
25 24 22 20 20 22 23 21 20 18 17 15 14 12 9 12 16 18 17 15 13 13 12 11 11 12 15 17 17 18 20 21 21 20 21 24 25 25 24 24 24 24
25 24 23 23 23 23 22 21 19 18 17 14 11 9 11 17 19 17 15 13 12 13 12 11 12 13 16 18 17 18 20 21 21 20 22 24 24 25 25 25 25 26
25 25 24 24 23 23 23 20 18 17 15 13 12 13 17 19 17 15 14 13 12 13 13 13 14 16 17 17 17 19 21 22 21 19 21 23 23 24 25 25 26 27
25 24 24 23 23 23 21 20 19 17 14 15 18 19 19 18 15 14 13 11 12 14 15 16 17 17 17 16 17 19 21 23 21 19 22 24 23 24 25 25 27 28
24 23 23 22 22 21 20 20 18 15 16 20 20 18 17 16 14 13 12 11 13 14 16 17 17 17 16 16 17 19 21 22 22 21 23 25 25 25 26 27 28 29
22 21 22 21 20 20 18 17 14 15 20 21 18 16 14 12 13 14 14 14 14 14 14 15 16 16 16 16 18 20 21 22 22 23 24 26 26 26 27 28 29 29
21 21 20 19 19 18 15 14 16 20 22 18 15 13 10 11 17 18 17 18 16 14 13 13 14 15 16 16 19 21 21 21 22 23 24 24 25 27 27 27 28 29
21 20 19 19 18 15 15 18 22 22 18 13 11 10 11 18 22 20 19 19 16 15 17 16 16 16 17 17 19 21 21 20 20 22 22 22 23 25 25 25 26 27
21 20 19 19 17 16 20 23 22 17 12 10 12 15 19 23 22 19 19 18 16 16 17 17 18 18 18 18 19 20 20 20 20 21 22 22 22 23 23 24 24 24
22 20 20 19 17 19 24 23 16 12 12 14 19 22 23 22 20 18 18 17 17 17 16 16 17 18 19 19 19 19 19 19 20 21 22 21 21 20 20 21 22 22
23 22 22 19 18 22 24 18 13 14 17 20 22 23 22 20 19 17 17 17 18 18 17 17 18 19 20 20 20 20 19 19 19 21 21 21 20 20 19 19 19 19
24 23 21 18 19 24 22 15 14 18 21 22 21 21 21 19 17 16 16 18 19 19 19 19 19 19 19 19 19 19 18 18 19 20 20 20 19 19 19 18 18 17
24 22 20 19 22 24 19 15 17 21 22 21 20 20 20 18 17 17 17 18 20 20 19 19 19 19 19 19 19 18 18 18 18 19 19 18 16 17 17 17 16 15
23 21 21 22 23 22 17 17 21 22 21 21 19 18 18 17 17 17 18 20 21 20 20 19 18 19 19 19 19 18 17 17 17 17 17 16 15 15 16 17 15 14
23 23 22 23 22 18 16 20 23 22 21 20 18 17 18 18 18 19 21 22 22 21 20 18 17 17 17 16 16 16 16 16 16 15 15 15 14 15 16 17 16 15
23 23 23 23 20 16 19 23 24 23 22 20 18 18 19 20 21 22 22 23 22 21 20 18 17 15 14 13 13 14 15 15 15 14 14 15 16 16 17 18 19 18
23 23 24 21 17 18 23 26 25 23 22 20 19 20 22 23 23 23 23 23 22 21 19 17 16 14 12 12 12 12 13 14 14 15 16 17 18 18 18 18 19 19
23 23 23 18 15 20 26 27 26 24 22 21 21 22 24 24 23 24 23 22 21 20 18 16 15 12 12 12 12 12 13 15 17 18 19 20 20 19 18 18 18 19
24 24 22 16 16 23 28 27 26 24 22 22 22 23 24 24 24 24 24 22 22 21 20 19 17 15 13 14 15 16 17 19 21 22 22 22 21 20 19 17 17 17
25 25 20 16 20 27 28 26 26 25 23 22 22 23 25 25 25 25 24 23 22 22 23 22 21 20 18 19 20 20 22 23 24 24 25 24 23 22 20 19 18 17
27 25 20 18 24 29 28 27 27 25 24 22 22 24 25 25 26 25 25 24 23 23 23 22 22 20 19 19 21 22 22 23 24 25 26 25 25 24 22 22 20 20
28 25 20 22 28 30 28 28 27 25 24 23 22 24 25 25 25 25 25 25 23 22 22 22 20 18 17 17 19 20 22 23 24 25 25 25 24 23 23 22 21 20
27 24 22 26 30 30 28 28 27 25 25 23 23 24 25 25 24 24 24 24 23 22 21 21 20 18 17 16 16 17 20 22 24 24 25 24 23 22 22 21 20 20
24 23 24 29 31 29 29 28 27 26 25 23 24 25 25 25 24 24 23 22 21 20 19 20 20 19 18 17 15 15 17 20 22 23 24 23 23 22 21 21 21 20
23 23 27 30 30 29 29 28 28 27 25 24 24 24 24 24 24 24 22 21 20 18 17 18 20 20 19 18 16 15 15 17 21 23 23 22 22 22 22 21 21 20
24 26 29 31 30 30 29 29 28 27 26 25 24 24 24 24 23 24 23 20 19 17 16 15 17 20 21 19 17 15 13 15 19 21 22 22 21 21 21 21 20 20
Wind_Direction
162 162 167 168 163 161 157 151 144 133 124 122 116 112 106 101 103 105 103 98 100 105 102 91 90 93 92 92 92 86 77 71 74 78 76 74 70 67 66 63 61 58
164 164 165 162 156 155 154 150 143 133 125 119 114 116 115 114 113 107 101 99 103 108 99 88 93 99 97 97 96 87 75 71 75 79 77 74 70 67 66 63 61 57
163 163 162 157 152 150 148 144 139 132 124 110 109 119 123 123 120 111 106 106 108 107 95 90 100 104 101 101 96 83 72 69 75 80 77 73 71 70 68 65 63 58
161 161 159 155 151 147 144 140 135 129 119 115 118 121 125 128 125 120 117 115 114 107 96 98 105 103 103 103 94 81 73 70 74 80 79 74 72 72 70 68 65 60
159 158 157 153 149 146 143 140 136 129 126 127 126 127 131 133 132 130 126 120 117 110 104 105 105 102 106 104 92 82 76 72 73 80 82 76 73 72 71 70 67 61
157 156 155 152 150 148 145 143 143 140 136 132 130 135 140 142 143 137 126 121 122 119 116 115 106 103 107 104 93 84 79 75 74 78 82 78 74 73 72 71 69 64
156 155 153 152 152 152 149 147 145 142 138 135 138 146 149 150 148 139 129 128 127 120 120 122 114 109 110 105 95 87 81 78 75 76 80 80 76 73 72 72 71 68
156 154 153 153 151 149 147 143 140 139 140 144 154 160 156 151 148 141 136 136 130 119 115 115 114 115 114 105 97 91 86 83 78 75 77 80 78 74 72 74 74 71
156 154 153 153 148 144 144 142 140 141 144 152 156 152 147 147 147 145 143 141 134 125 118 112 111 114 114 107 100 97 94 91 84 77 76 79 79 75 74 75 75 73
156 155 155 153 147 147 147 145 142 140 141 146 148 145 143 143 144 145 146 143 136 130 122 114 112 113 113 109 104 105 104 100 92 82 78 79 78 76 75 76 77 74
156 157 156 152 152 154 151 145 137 137 143 147 147 145 145 145 143 142 142 141 137 131 124 117 115 116 114 110 108 108 107 104 97 88 83 81 79 76 74 76 78 77
159 160 159 159 161 158 152 142 137 142 147 150 149 148 147 148 146 141 140 139 135 131 126 121 120 121 119 116 114 111 109 105 101 95 90 86 83 79 74 74 78 81
163 163 162 165 164 158 152 145 144 147 149 149 150 150 149 149 146 141 140 139 136 132 128 125 125 124 122 122 121 118 116 110 106 103 99 95 90 84 78 75 78 82
165 162 159 160 160 159 156 151 149 150 151 150 151 150 147 147 145 142 140 138 136 133 130 129 129 127 126 126 125 123 121 118 114 111 108 104 99 90 81 79 82 85
163 160 159 161 162 162 157 152 151 151 150 150 151 148 145 143 142 141 139 136 134 132 131 131 131 129 131 133 131 128 125 123 122 119 116 113 108 98 86 82 86 88
159 161 166 168 166 163 156 152 152 151 149 148 147 146 144 143 140 139 137 135 134 132 131 131 129 130 136 139 139 135 131 128 126 120 116 116 112 105 94 85 87 90
158 164 171 170 165 160 156 153 152 150 148 146 144 143 143 142 140 137 135 135 134 132 130 128 127 132 141 144 140 138 135 131 126 120 116 115 112 108 99 89 87 90
161 169 174 170 161 158 155 153 152 149 147 145 143 144 144 142 140 137 134 134 134 130 126 124 126 134 144 146 141 137 133 127 122 118 114 111 109 106 102 95 90 89
165 174 177 172 161 157 154 153 152 149 147 146 145 146 146 143 140 137 134 134 133 127 120 114 115 122 130 133 130 128 125 120 115 112 108 105 103 102 100 97 92 90
169 175 176 171 162 156 153 153 152 149 148 148 148 149 148 144 141 139 135 134 132 128 121 114 111 112 116 119 120 120 119 115 110 107 104 101 99 98 96 94 92 90
173 179 177 170 161 156 154 153 152 150 150 150 152 153 151 147 144 142 138 135 133 132 130 124 117 114 113 114 117 117 116 112 109 106 104 101 98 96 94 91 90 89
179 183 179 167 160 156 155 153 153 152 152 153 153 153 152 149 147 146 143 139 136 136 136 133 130 126 121 117 117 117 115 113 110 108 106 102 99 96 94 90 88 87
183 184 176 164 160 158 156 155 155 154 155 156 155 154 154 152 150 148 147 144 141 139 139 140 141 139 135 128 123 120 118 115 112 111 108 104 101 98 95 91 88 85
187 185 172 163 161 160 158 157 157 157 158 160 159 156 155 154 152 149 147 146 144 141 142 147 150 150 146 140 130 123 120 119 117 114 110 107 104 100 96 93 89 86
189 182 171 165 164 163 161 160 159 158 160 163 162 159 156 156 155 152 149 147 145 141 141 151 157 158 155 150 140 130 124 123 123 119 114 111 107 103 98 93 90 87
188 179 171 168 166 165 163 162 161 160 161 162 162 160 158 157 158 156 152 148 146 141 138 146 158 164 162 157 150 141 132 129 129 125 120 116 111 106 100 94 90 88